Forside
METAR-TAF:

METAR-TAF

Lufthavne :

South St. Paul Municipal Airport (Richard E. Fleming Field)

South St. Paul, Minnesota, USA

Breddekreds: 44-51-26N, længdekreds: 093-01-58W, højde: 250 m

Aktuelle vejr

Denne rapport blev lavet for 25 minutter siden, kl. 14:15 UTC
Vind 6 kt fra sydsydøst
Temperatur 9°C
Fugtighed 40%
Tryk 1030 hPa
Sigt: 16.1 km
skyfri

METAR: KSGS 111415Z AUTO 15006KT 10SM CLR 09/M04 A3042 RMK AO2 T00921038

Tid: 09:40 (14:40 UTC)


TAF: fraværende

Vejrobservationer og prognoser fra mere end 4000 lufthavne (METAR og TAF).

De gule og røde prikker repræsenterer de meteorologiske stationer.

Flyt musen over at se navnet på stationen.

Så klik over at se vejr observationer og prognoser.

At skifte det kort: Klik på de grønne knapper med et sort kors for at zoome ind; på den grønne knap med en bindestreg for at zoome ud; eller på de grønne pile for tilstødende kort.


METAR-TAF: